KC3JUG-13 Weather Reports


time (UTC)temp
C
wind
direction
speed
KPH
gust
KPH
rain 1hr
cm
rain 24hr
cm
rain mn
cm
humidity
%
barometer
mb
20260506201436 17 269 6.4 14.5 0.00 0.43 0.43 89 1008.5
20260506200136 17 246 6.4 22.5 0.00 0.43 0.43 90 1008.7
20260506194836 17 242 8.0 14.5 0.00 0.43 0.43 89 1008.7
20260506193536 17 205 6.4 16.1 0.00 0.43 0.43 92 1008.9
20260506192236 17 255 6.4 17.7 0.00 0.43 0.43 94 1009.0
20260506190936 16 204 4.8 8.0 0.00 0.43 0.43 95 1009.0
20260506185636 16 246 4.8 11.3 0.00 0.43 0.43 97 1008.9
20260506184336 15 219 4.8 12.9 0.00 0.43 0.43 97 1009.0
20260506183036 15 212 6.4 16.1 0.00 0.43 0.43 97 1009.2
20260506181736 15 261 4.8 11.3 0.00 0.43 0.43 97 1009.4
20260506180436 15 283 6.4 16.1 0.00 0.43 0.43 96 1009.6
20260506175136 15 254 6.4 16.1 0.00 0.43 0.43 96 1009.6
20260506173836 15 271 6.4 14.5 0.00 0.43 0.43 96 1009.5
20260506172536 15 258 4.8 12.9 0.00 0.43 0.43 96 1009.4
20260506171236 14 217 6.4 12.9 0.03 0.43 0.43 96 1009.4
20260506165936 14 197 4.8 9.7 0.03 0.43 0.43 96 1009.5
20260506164636 15 198 4.8 8.0 0.05 0.43 0.43 96 1009.6
20260506163336 15 195 6.4 12.9 0.08 0.43 0.43 96 1009.7
20260506162036 15 198 4.8 9.7 0.08 0.41 0.41 96 1009.6
20260506160736 15 180 4.8 9.7 0.13 0.41 0.41 96 1009.2
20260506155510 15 200 4.8 8.0 0.20 0.38 0.38 96 1009.4
20260506155436 15 200 4.8 8.0 0.20 0.38 0.38 96 1009.4
20260506154136 15 243 4.8 9.7 0.25 0.38 0.38 96 1010.1
20260506152836 15 188 4.8 9.7 0.25 0.36 0.36 96 1010.3
20260506151536 15 205 4.8 11.3 0.25 0.33 0.33 95 1010.4
20260506150236 15 234 4.8 6.4 0.18 0.23 0.23 95 1010.5
20260506144936 15 191 4.8 8.0 0.13 0.15 0.15 95 1010.2
20260506143636 15 196 4.8 9.7 0.13 0.13 0.13 95 1010.2
20260506142336 15 249 3.2 8.0 0.10 0.10 0.10 94 1010.3
20260506141036 15 198 3.2 6.4 0.08 0.08 0.08 93 1010.4
20260506135736 15 202 3.2 9.7 0.05 0.05 0.05 93 1010.4
20260506134515 15 202 4.8 8.0 0.00 0.00 0.00 92 1010.3
20260506134436 15 202 4.8 8.0 0.00 0.00 0.00 92 1010.3
20260506133136 15 211 4.8 6.4 0.00 0.00 0.00 91 1010.4
20260506131836 15 232 4.8 8.0 0.00 0.00 0.00 91 1010.3
20260506130536 15 208 4.8 8.0 0.00 0.00 0.00 90 1010.6
20260506125236 15 196 4.8 9.7 0.00 0.00 0.00 90 1010.5
20260506123936 15 198 4.8 6.4 0.00 0.00 0.00 89 1010.6
20260506122636 16 189 6.4 9.7 0.00 0.00 0.00 88 1010.7
20260506121336 16 201 6.4 11.3 0.00 0.00 0.00 86 1010.5
20260506120036 16 204 6.4 9.7 0.00 0.00 0.00 84 1010.3
20260506114736 16 223 6.4 19.3 0.00 0.00 0.00 83 1010.1
20260506113436 16 234 6.4 12.9 0.00 0.00 0.00 83 1010.2
20260506112136 16 205 6.4 11.3 0.00 0.00 0.00 83 1010.0
20260506110836 16 192 6.4 11.3 0.00 0.00 0.00 83 1009.8
20260506105536 16 208 6.4 9.7 0.00 0.00 0.00 83 1009.8
20260506104236 16 200 6.4 12.9 0.00 0.00 0.00 83 1009.8
20260506102936 16 187 6.4 12.9 0.00 0.00 0.00 82 1009.7
20260506101637 16 199 6.4 11.3 0.00 0.00 0.00 82 1009.6
20260506100337 17 189 6.4 11.3 0.00 0.00 0.00 81 1009.5
20260506095037 17 211 6.4 9.7 0.00 0.00 0.00 81 1009.5
20260506093737 17 192 6.4 9.7 0.00 0.00 0.00 80 1009.6
20260506092437 17 200 6.4 12.9 0.00 0.00 0.00 80 1009.7
20260506091137 17 194 6.4 8.0 0.00 0.00 0.00 79 1009.8
20260506085837 17 190 6.4 11.3 0.00 0.00 0.00 79 1009.9
20260506084537 17 196 6.4 11.3 0.00 0.00 0.00 78 1009.9
20260506083237 17 186 6.4 8.0 0.00 0.00 0.00 77 1010.1
20260506081937 17 194 4.8 8.0 0.00 0.00 0.00 76 1010.1
20260506080637 18 196 6.4 8.0 0.00 0.00 0.00 75 1010.1
20260506072737 18 206 4.8 9.7 0.00 0.00 0.00 73 1010.2
20260506071437 18 190 4.8 9.7 0.00 0.00 0.00 73 1010.4
20260506070137 18 188 4.8 6.4 0.00 0.00 0.00 72 1010.6
20260506062237 18 203 4.8 9.7 0.00 0.00 0.00 69 1011.0
20260506060937 18 197 4.8 8.0 0.00 0.00 0.00 69 1011.1
20260506050437 18 267 4.8 9.7 0.00 0.00 0.00 66 1011.4
20260506043837 18 248 4.8 6.4 0.00 0.00 0.00 66 1011.4
20260506042537 18 208 3.2 8.0 0.00 0.00 0.00 65 1011.5
20260506041237 18 194 4.8 6.4 0.00 0.00 0.00 66 1011.5
20260506035937 18 221 4.8 9.7 0.00 0.00 0.00 65 1011.6
20260506034637 18 215 4.8 6.4 0.00 0.00 0.00 66 1011.6
20260506033337 18 201 4.8 8.0 0.00 0.00 0.00 65 1011.5
20260506032037 18 209 3.2 8.0 0.00 0.00 0.00 65 1011.6
20260506030737 19 207 3.2 6.4 0.00 0.00 0.00 63 1011.4
20260506025437 19 242 3.2 4.8 0.00 0.00 0.00 63 1011.6
20260506024137 19 212 3.2 4.8 0.00 0.00 0.00 62 1011.5
20260506022837 20 207 3.2 6.4 0.00 0.00 0.00 62 1011.5
20260506021537 20 207 3.2 8.0 0.00 0.00 0.00 62 1011.7
20260506020237 20 216 3.2 4.8 0.00 0.00 0.00 61 1011.7
20260506014937 20 216 3.2 6.4 0.00 0.00 0.00 60 1011.6
20260506013637 20 216 3.2 4.8 0.00 0.00 0.00 59 1011.2
20260506012409 20 216 3.2 6.4 0.00 0.00 0.00 58 1011.4
20260506012337 20 216 3.2 6.4 0.00 0.00 0.00 58 1011.4
20260506011037 21 215 3.2 6.4 0.00 0.00 0.00 57 1011.1
20260506005737 21 244 3.2 6.4 0.00 0.00 0.00 56 1011.0
20260506004437 21 218 1.6 4.8 0.00 0.00 0.00 55 1010.9
20260506003137 21 230 1.6 3.2 0.00 0.00 0.00 54 1010.8
20260506001837 21 230 1.6 3.2 0.00 0.00 0.00 53 1010.8
20260506000538 22 230 3.2 4.8 0.00 0.00 0.00 52 1010.6
20260505235237 22 264 3.2 4.8 0.00 0.00 0.00 52 1010.4
20260505233938 22 264 4.8 11.3 0.00 0.00 0.00 51 1010.4
20260505232638 23 269 3.2 9.7 0.00 0.00 0.00 51 1010.1
20260505231338 23 211 3.2 4.8 0.00 0.00 0.00 49 1010.1
20260505230038 23 209 3.2 8.0 0.00 0.00 0.00 47 1010.0
20260505224738 24 188 4.8 11.3 0.00 0.00 0.00 45 1010.1
20260505223438 24 178 4.8 9.7 0.00 0.00 0.00 46 1010.0
20260505222138 24 208 4.8 8.0 0.00 0.00 0.00 45 1010.1
20260505220838 25 272 6.4 14.5 0.00 0.00 0.00 46 1010.2
20260505215538 25 248 1.6 20.9 0.00 0.00 0.00 44 1010.1
20260505214238 25 194 6.4 14.5 0.00 0.00 0.00 42 1009.9
20260505212938 25 232 8.0 20.9 0.00 0.00 0.00 43 1009.9
20260505211638 25 255 6.4 16.1 0.00 0.00 0.00 42 1009.9
20260505210338 25 190 8.0 12.9 0.00 0.00 0.00 42 1009.8
20260505205038 25 198 6.4 14.5 0.00 0.00 0.00 43 1010.0
20260505203738 26 238 6.4 19.3 0.00 0.00 0.00 43 1009.9